Tutti
Fisher County Airport (Rotan/Roby, TX) 56F Meteo
There is no TAF data available at 56F or any nearby airports.
There is no METAR data available at 56F. Showing METAR data for KSWW (25 mi S).
Storico METAR SWW recente (nessun dato per 56F)
| Date | Time (CDT) | Flight Rules | Wind Dir. | Speed | Type | Height AGL (ft) | Visibility | Temp (°C) | Temp (°F) | Dew Point (°C) | Dew Point (°F) | Rel. Humid. | Pressure | Density Altitude | Remarks |
|---|---|---|---|---|---|---|---|---|---|---|---|---|---|---|---|
| 01-set | 09:55 | n/a | Calm | Missing | — | — | — | — | — | — | — | ||||
| 01-set | 09:35 | n/a | Calm | Missing | — | — | — | — | — | — | — | ||||
| 01-set | 09:15 | n/a | Calm | Missing | — | — | — | — | — | — | — | ||||
| 01-set | 08:55 | VFR | 180° | 12 kt | 10 miles | 28° | 82° | 17° | 62° | 51% | 30.11 in Hg | 4.224 ft | Wind gusting to 16 KT | ||
| 01-set | 08:35 | VFR | 180° | 10 kt | 10 miles | 27° | 80° | 17° | 62° | 53% | 30.11 in Hg | 4.104 ft | |||
| 01-set | 08:15 | VFR | 180° | 7 kt | 10 miles | 26° | 78° | 17° | 62° | 56% | 30.11 in Hg | 3.984 ft | |||
| 01-set | 07:55 | VFR | 200° | 9 kt | 10 miles | 26° | 78° | 16° | 60° | 56% | 30.10 in Hg | 3.994 ft | |||
| 01-set | 07:35 | VFR | 190° | 10 kt | 10 miles | 26° | 78° | 16° | 60° | 56% | 30.10 in Hg | 3.994 ft | |||
| 01-set | 07:15 | VFR | 190° | 11 kt | 10 miles | 26° | 78° | 16° | 60° | 56% | 30.09 in Hg | 4.004 ft | |||
| 01-set | 06:55 | VFR | 190° | 11 kt | 10 miles | 26° | 78° | 16° | 60° | 56% | 30.09 in Hg | 4.004 ft | |||
| 01-set | 06:35 | VFR | 190° | 10 kt | 10 miles | 26° | 78° | 16° | 60° | 56% | 30.09 in Hg | 4.004 ft | |||
| 01-set | 06:15 | VFR | 190° | 11 kt | 10 miles | 26° | 78° | 16° | 60° | 54% | 30.09 in Hg | 4.004 ft | |||
| 01-set | 05:55 | VFR | 180° | 13 kt | 10 miles | 26° | 78° | 16° | 60° | 53% | 30.09 in Hg | 4.004 ft | |||
| 01-set | 05:35 | VFR | 180° | 13 kt | 10 miles | 27° | 80° | 16° | 60° | 52% | 30.08 in Hg | 4.134 ft | Wind gusting to 17 KT | ||
| 01-set | 05:15 | VFR | 180° | 9 kt | 10 miles | 27° | 80° | 16° | 60° | 51% | 30.08 in Hg | 4.134 ft | |||
| 01-set | 04:55 | VFR | 170° | 10 kt | 10 miles | 27° | 80° | 15° | 59° | 50% | 30.08 in Hg | 4.134 ft | Wind gusting to 14 KT | ||
| 01-set | 04:35 | VFR | 160° | 9 kt | 10 miles | 27° | 80° | 15° | 59° | 49% | 30.08 in Hg | 4.134 ft | |||
| 01-set | 04:15 | VFR | 160° | 9 kt | 10 miles | 27° | 80° | 15° | 59° | 48% | 30.08 in Hg | 4.134 ft | |||
| 01-set | 03:55 | VFR | 150° | 8 kt | 10 miles | 27° | 80° | 15° | 59° | 47% | 30.08 in Hg | 4.134 ft | |||
| 01-set | 03:35 | VFR | 160° | 9 kt | 10 miles | 27° | 80° | 15° | 59° | 47% | 30.07 in Hg | 4.144 ft | |||
| 01-set | 03:15 | VFR | 160° | 9 kt | 10 miles | 27° | 80° | 15° | 59° | 46% | 30.07 in Hg | 4.144 ft | |||
| 01-set | 02:55 | VFR | 160° | 8 kt | 10 miles | 27° | 80° | 14° | 57° | 45% | 30.07 in Hg | 4.144 ft | |||
| 01-set | 02:35 | VFR | 160° | 9 kt | 10 miles | 28° | 82° | 14° | 57° | 44% | 30.08 in Hg | 4.254 ft | |||
| 01-set | 02:15 | VFR | 160° | 8 kt | 10 miles | 28° | 82° | 14° | 57° | 43% | 30.08 in Hg | 4.254 ft |
Accedi
| Il tuo browser non è supportato. fai l'upgrade del tuo browser |
